#timestamp,LO_Frequency,Hit 
1501092015.7,286046992.3,N
1501092035.6,286046994.4,N
1501092055.4,286046994.7,N
1501092075.3,286046993.8,N
1501092095.1,286046996.2,N
1501092096.0,286046996.2,N
1501092115.8,286046996.4,N
1501092135.7,286046994.3,N
1501092155.5,286046993.5,N
1501092175.3,286046993.9,N
1501092195.2,286046994.4,N
1501092215.0,286046993.5,N
1501092215.9,286046993.5,N
1501092235.8,286046993.0,Y
1501092255.6,286046998.9,N
1501092275.4,286047002.8,N
1501092295.3,286046999.7,N
1501092315.1,286047004.4,N
1501092335.9,286047002.3,N
1501092355.7,286047001.9,N
1501092375.5,286047000.8,N
1501092395.4,286046998.4,N
1501092415.2,286047000.0,N
1501092435.0,286047000.9,N
1501092435.9,286047000.9,N
1501092455.8,286047002.3,N
1501092475.6,286047004.1,N
1501092495.5,286047004.1,N
1501092515.3,286047003.4,N
1501092535.1,286047002.4,N
1501092555.9,286047004.4,N
1501092575.7,286047001.3,N
1501092595.5,286047004.3,N
1501092615.4,286047001.7,N
1501092635.2,286047004.4,N
1501092655.1,286047004.2,N
1501092656.0,286047004.2,N
1501092675.8,286047005.1,N
1501092695.6,286047001.4,N
1501092715.5,286047001.7,N
1501092735.3,286047001.8,N
1501092755.1,286047003.2,N
1501092775.9,286047001.4,N
1501092795.7,286047001.7,N
1501092815.6,286047004.4,N
1501092835.4,286047003.6,N
1501092855.2,286047006.7,Y
1501092875.1,286047005.9,Y
1501092876.0,286047005.9,Y
1501092895.8,286046997.4,N
1501092915.7,286046995.8,N
1501092935.5,286046995.7,N
1501092955.3,286046993.9,N
1501092975.2,286046996.2,N
1501092995.0,286046995.6,N
1501092995.9,286046995.6,N
1501093015.7,286046996.9,N
1501093035.6,286046997.1,N
1501093055.4,286046997.2,N
1501093075.4,286046997.4,N
1501093095.2,286046997.7,N
1501093115.0,286046995.1,N
1501093116.0,286046995.1,N
1501093135.8,286046996.1,N
1501093155.6,286046996.0,N
1501093175.5,286046994.3,N
1501093195.3,286046994.5,N
1501093215.1,286046991.8,N
1501093235.9,286046993.6,N
1501093255.7,286046994.8,N
1501093275.6,286046993.2,N
1501093295.4,286046992.6,N
1501093315.2,286046993.1,N
1501093335.1,286046994.4,N
1501093336.0,286046994.4,N
1501093355.8,286046992.4,N
1501093375.6,286046990.7,N
1501093395.5,286046992.5,N
1501093415.3,286046994.1,Y
1501093435.2,286046998.9,N
1501093455.9,286046998.4,N
1501093475.7,286046996.9,N
1501093495.6,286046997.7,N
1501093515.4,286046998.0,N
1501093535.3,286046997.2,N
1501093555.1,286046996.6,N
1501093556.0,286046996.6,N
1501093575.8,286046999.5,N
1501093595.7,286046995.0,N
1501093615.5,286046995.0,N
1501093635.3,286046996.7,N
1501093655.2,286046999.3,N
1501093675.0,286047000.0,N
1501093675.9,286047000.0,N
1501093695.8,286047002.0,N
1501093715.6,286047001.6,N
1501093735.4,286047001.8,N
1501093755.3,286047000.9,N
1501093775.1,286047000.8,N
1501093795.8,286046998.4,N
1501093815.7,286046998.4,N
1501093835.5,286047002.4,N
1501093855.4,286047002.2,N
1501093875.2,286047003.3,N
1501093895.0,286047007.1,N
1501093895.9,286047007.1,N
1501093915.8,286047007.3,N
1501093935.6,286047004.9,N
1501093955.4,286047005.6,N
1501093975.3,286047001.7,N
1501093995.1,286047003.5,N
1501094015.9,286047003.8,N
1501094035.7,286047003.9,N
1501094055.5,286047002.2,N
1501094075.4,286047002.0,N
1501094095.2,286047004.0,N
1501094115.0,286047000.3,N
1501094116.0,286047000.3,N
1501094135.8,286047003.7,N
1501094155.6,286047004.1,N
1501094175.5,286047002.0,N
1501094195.3,286047003.9,N
1501094215.1,286047001.9,N
1501094235.9,286047002.7,N
1501094255.7,286046999.7,N
1501094275.6,286046999.9,N
1501094295.4,286047001.1,N
1501094315.2,286046998.3,N
1501094335.1,286046997.0,N
1501094336.0,286046997.0,N
1501094355.8,286046996.5,N
1501094375.6,286046998.6,N
1501094395.5,286047000.2,N
1501094415.3,286047000.2,N
1501094435.2,286046998.8,N
1501094455.9,286046999.1,N
1501094475.7,286046997.4,N
1501094495.6,286046997.9,N
1501094515.4,286046995.5,N
1501094535.2,286046996.1,N
1501094555.1,286046996.9,N
1501094556.0,286046996.9,N
1501094575.8,286046997.1,N
1501094595.7,286046997.5,N
1501094615.5,286046995.1,N
1501094635.3,286047001.1,N
1501094655.2,286046998.7,N
1501094675.0,286046999.2,N
1501094675.9,286046999.2,N
1501094695.7,286046999.5,N
1501094715.6,286046999.5,N
1501094735.4,286046997.4,N
1501094755.3,286046995.4,N
1501094775.1,286046997.2,N
1501094776.0,286046997.2,N
1501094795.8,286046996.7,N
1501094815.7,286046998.6,N
1501094835.5,286047000.9,N
1501094855.3,286047001.1,N
1501094875.2,286046999.6,N
1501094895.0,286046999.2,N
1501094895.9,286046999.2,N
1501094915.8,286046996.9,N
1501094935.6,286046997.3,N
1501094955.4,286046999.0,N
1501094975.3,286047000.2,N
1501094995.1,286047001.7,N
1501095015.9,286047007.5,Y
1501095035.7,286047010.0,Y
1501095055.5,286047010.1,Y
1501095075.4,286047009.4,N
1501095095.2,286047009.7,N
1501095115.1,286047011.6,N
1501095116.0,286047011.6,N
1501095135.8,286047013.8,N
1501095155.6,286047011.8,N
1501095175.5,286047009.4,N
1501095195.3,286047010.2,N
1501095215.1,286047007.8,N
1501095235.9,286047012.3,N
1501095255.7,286047009.7,N
1501095275.6,286047010.5,N
1501095295.4,286047008.3,N
1501095315.2,286047010.4,N
1501095335.1,286047010.6,N
1501095336.0,286047010.6,N
1501095355.8,286047011.2,N
1501095375.7,286047011.0,N
1501095395.5,286047015.4,N
1501095415.3,286047013.8,N
1501095435.2,286047013.3,N
1501095455.9,286047015.1,N
1501095475.7,286047017.9,Y
1501095495.6,286047006.7,N
1501095515.4,286047007.5,N
1501095535.3,286047006.4,N
1501095555.1,286047007.6,N
1501095556.0,286047007.6,N
1501095575.8,286047003.6,N
1501095595.7,286047000.1,N
